FW8483 Weather Reports


Display with metric or nautical units.
time (UTC)temp
F
wind
direction
speed
MPH
gust
MPH
rain 1hr
in
rain 24hr
in
rain mn
in
humidity
%
barometer
mb
20260505181514 80 205 2.0 8.0 0.00 0.00 0.00 55 1015.6
20260505181003 79 165 4.0 8.0 0.00 0.00 0.00 54 1015.7
20260505180508 79 172 2.0 9.0 0.00 0.00 0.00 57 1015.7
20260505180015 79 203 3.0 9.0 0.00 0.00 0.00 57 1015.8
20260505175504 79 221 2.0 6.0 0.00 0.00 0.00 59 1015.8
20260505175007 78 246 3.0 10.0 0.00 0.00 0.00 57 1015.8
20260505174518 78 186 4.0 10.0 0.00 0.00 0.00 56 1015.8
20260505174007 78 140 5.0 10.0 0.00 0.00 0.00 56 1015.8
20260505173503 79 167 3.0 11.0 0.00 0.00 0.00 56 1015.7
20260505173029 79 182 3.0 11.0 0.00 0.00 0.00 56 1015.7
20260505172504 79 134 4.0 11.0 0.00 0.00 0.00 57 1015.8
20260505172007 79 257 2.0 10.0 0.00 0.00 0.00 56 1015.8
20260505171527 79 248 3.0 10.0 0.00 0.00 0.00 58 1015.9
20260505171005 78 178 1.0 8.0 0.00 0.00 0.00 59 1015.9
20260505170506 78 158 5.0 8.0 0.00 0.00 0.00 57 1015.9
20260505170021 78 162 2.0 7.0 0.00 0.00 0.00 58 1016.0
20260505165509 77 128 3.0 7.0 0.00 0.00 0.00 57 1016.1
20260505165006 77 205 3.0 5.0 0.00 0.00 0.00 58 1016.1
20260505164520 77 223 2.0 9.0 0.00 0.00 0.00 58 1016.2
20260505164008 77 177 3.0 9.0 0.00 0.00 0.00 58 1016.4
20260505163504 76 187 6.0 9.0 0.00 0.00 0.00 59 1016.1
20260505163019 76 232 2.0 9.0 0.00 0.00 0.00 58 1016.1
20260505162506 76 136 3.0 10.0 0.00 0.00 0.00 58 1016.2
20260505162005 76 189 6.0 10.0 0.00 0.00 0.00 58 1016.2
20260505161519 77 128 6.0 10.0 0.00 0.00 0.00 59 1016.2
20260505161007 76 153 1.0 12.0 0.00 0.00 0.00 58 1016.2
20260505160510 76 227 3.0 12.0 0.00 0.00 0.00 59 1016.4
20260505153005 74 152 2.0 10.0 0.00 0.00 0.00 61 1016.5
20260505152504 74 121 5.0 10.0 0.00 0.00 0.00 62 1016.5
20260505152004 74 57 3.0 5.0 0.00 0.00 0.00 62 1016.5
20260505151509 74 238 2.0 3.0 0.00 0.00 0.00 60 1016.6
20260505151004 73 184 1.0 5.0 0.00 0.00 0.00 61 1016.7
20260505150507 73 107 3.0 7.0 0.00 0.00 0.00 60 1016.6
20260505140503 70 113 6.0 11.0 0.00 0.00 0.00 68 1016.3
20260505125005 60 90 1.0 3.0 0.00 0.00 0.00 82 1016.2
20260505124519 59 49 0.0 3.0 0.00 0.00 0.00 83 1016.3
20260505124005 59 166 0.0 0.0 0.00 0.00 0.00 84 1016.4
20260505123505 57 126 0.0 0.0 0.00 0.00 0.00 86 1016.4
20260505123023 57 139 0.0 0.0 0.00 0.00 0.00 87 1016.5
20260505122507 56 82 0.0 0.0 0.00 0.00 0.00 90 1016.3
20260505122011 55 139 0.0 0.0 0.00 0.00 0.00 90 1016.2
20260505121503 54 120 0.0 0.0 0.00 0.00 0.00 92 1016.2
20260505121003 53 345 0.0 0.0 0.00 0.00 0.00 93 1016.2
20260505120503 53 352 0.0 1.0 0.00 0.00 0.00 93 1016.1
20260505120033 52 352 0.0 1.0 0.00 0.00 0.00 92 1016.1
20260505115502 52 176 0.0 1.0 0.00 0.00 0.00 93 1015.9
20260505115003 51 25 0.0 0.0 0.00 0.00 0.00 93 1015.9
20260505114515 51 334 0.0 0.0 0.00 0.00 0.00 93 1015.8
20260505114004 51 9 0.0 1.0 0.00 0.00 0.00 94 1015.8
20260505113506 50 304 0.0 1.0 0.00 0.00 0.00 93 1015.7
20260505113020 50 304 0.0 1.0 0.00 0.00 0.00 94 1015.7
20260505112506 50 315 0.0 0.0 0.00 0.00 0.00 94 1015.7
20260505112007 50 87 0.0 0.0 0.00 0.00 0.00 95 1015.6
20260505111526 50 84 0.0 0.0 0.00 0.00 0.00 95 1015.5
20260505111009 49 94 0.0 0.0 0.00 0.00 0.00 95 1015.5
20260505110502 49 97 0.0 0.0 0.00 0.00 0.00 95 1015.4
20260505102010 47 74 0.0 0.0 0.00 0.00 0.00 95 1015.2
20260505101526 47 113 0.0 0.0 0.00 0.00 0.00 94 1015.1
20260505101010 47 113 0.0 0.0 0.00 0.00 0.00 94 1015.3
20260505100508 47 113 0.0 0.0 0.00 0.00 0.00 94 1015.1
20260505100028 48 113 0.0 0.0 0.00 0.00 0.00 94 1015.1
20260505095504 48 113 0.0 0.0 0.00 0.00 0.00 94 1015.1
20260505095003 48 113 0.0 0.0 0.00 0.00 0.00 94 1015.0
20260505094511 48 113 0.0 0.0 0.00 0.00 0.00 94 1015.0
20260505094003 48 113 0.0 0.0 0.00 0.00 0.00 95 1015.1
20260505093503 48 113 0.0 0.0 0.00 0.00 0.00 95 1015.0
20260505093017 48 113 0.0 0.0 0.00 0.00 0.00 94 1015.0
20260505092504 48 113 0.0 0.0 0.00 0.00 0.00 93 1014.7
20260505092007 48 113 0.0 0.0 0.00 0.00 0.00 93 1014.6
20260505091527 49 113 0.0 0.0 0.00 0.00 0.00 93 1014.4
20260505091009 49 113 0.0 0.0 0.00 0.00 0.00 94 1014.4
20260505090507 49 113 0.0 0.0 0.00 0.00 0.00 94 1014.3
20260505090039 49 113 0.0 0.0 0.00 0.00 0.00 96 1014.4
20260505085512 49 113 0.0 0.0 0.00 0.00 0.00 95 1014.3
20260505085008 48 113 0.0 0.0 0.00 0.00 0.00 94 1014.2
20260505084512 48 113 0.0 0.0 0.00 0.00 0.00 94 1014.2
20260505084004 48 113 0.0 0.0 0.00 0.00 0.00 93 1014.3
20260505083507 48 113 0.0 0.0 0.00 0.00 0.00 93 1014.2
20260505083017 48 180 0.0 0.0 0.00 0.00 0.00 93 1014.3
20260505082504 49 180 0.0 0.0 0.00 0.00 0.00 94 1014.3
20260505082007 49 180 0.0 0.0 0.00 0.00 0.00 94 1014.2
20260505081521 48 180 0.0 0.0 0.00 0.00 0.00 94 1014.3
20260505081007 48 180 0.0 0.0 0.00 0.00 0.00 93 1014.4
20260505080507 49 180 0.0 0.0 0.00 0.00 0.00 93 1014.3
20260505080023 49 180 0.0 0.0 0.00 0.00 0.00 93 1014.2
20260505075509 49 180 0.0 0.0 0.00 0.00 0.00 93 1014.2
20260505075006 49 180 0.0 0.0 0.00 0.00 0.00 94 1014.3
20260505074528 49 180 0.0 0.0 0.00 0.00 0.00 93 1014.2
20260505074011 49 180 0.0 0.0 0.00 0.00 0.00 93 1014.4
20260505073505 49 180 0.0 0.0 0.00 0.00 0.00 93 1014.5
20260505073024 49 180 0.0 0.0 0.00 0.00 0.00 93 1014.5
20260505072505 49 180 0.0 0.0 0.00 0.00 0.00 93 1014.4
20260505072005 49 180 0.0 0.0 0.00 0.00 0.00 93 1014.3
20260505071519 49 180 0.0 0.0 0.00 0.00 0.00 93 1014.4
20260505071006 49 180 0.0 0.0 0.00 0.00 0.00 92 1014.4
20260505070510 49 180 0.0 0.0 0.00 0.00 0.00 92 1014.4
20260505070024 49 180 0.0 0.0 0.00 0.00 0.00 92 1014.5
20260505065508 50 180 0.0 0.0 0.00 0.00 0.00 91 1014.4
20260505065008 50 180 0.0 0.0 0.00 0.00 0.00 91 1014.5
20260505064537 50 180 0.0 0.0 0.00 0.00 0.00 91 1014.6
20260505064008 50 180 0.0 0.0 0.00 0.00 0.00 91 1014.7
20260505063509 51 180 0.0 0.0 0.00 0.00 0.00 91 1014.7
20260505063029 51 180 0.0 0.0 0.00 0.00 0.00 91 1014.6
20260505062504 51 180 0.0 0.0 0.00 0.00 0.00 90 1014.8
20260505062011 51 180 0.0 0.0 0.00 0.00 0.00 91 1014.9
20260505061530 51 180 0.0 0.0 0.00 0.00 0.00 91 1014.7
20260505061004 51 180 0.0 0.0 0.00 0.00 0.00 91 1014.9
20260505060507 51 180 0.0 0.0 0.00 0.00 0.00 90 1015.0
20260505060023 51 180 0.0 0.0 0.00 0.00 0.00 89 1014.8
20260505055512 51 180 0.0 0.0 0.00 0.00 0.00 90 1014.9
20260505055010 51 180 0.0 0.0 0.00 0.00 0.00 89 1014.9
20260505054539 52 180 0.0 0.0 0.00 0.00 0.00 88 1015.0
20260505054007 52 180 0.0 0.0 0.00 0.00 0.00 88 1015.1
20260505053507 52 180 0.0 0.0 0.00 0.00 0.00 88 1015.1
20260505053010 52 180 0.0 0.0 0.00 0.00 0.00 88 1015.2
20260505052503 52 180 0.0 0.0 0.00 0.00 0.00 87 1015.1
20260505052003 53 180 0.0 0.0 0.00 0.00 0.00 86 1015.3
20260505051513 53 180 0.0 0.0 0.00 0.00 0.00 86 1015.3
20260505051009 53 180 0.0 0.0 0.00 0.00 0.00 86 1015.3
20260505050503 53 180 0.0 0.0 0.00 0.00 0.00 86 1015.2
20260505041514 55 209 0.0 0.0 0.00 0.00 0.00 84 1015.4
20260505041005 55 209 0.0 0.0 0.00 0.00 0.00 83 1015.6
20260505040503 55 209 0.0 0.0 0.00 0.00 0.00 83 1015.5
20260505040021 55 209 0.0 0.0 0.00 0.00 0.00 83 1015.6
20260505035507 55 209 0.0 0.0 0.00 0.00 0.00 82 1015.6
20260505035007 55 209 0.0 0.0 0.00 0.00 0.00 79 1015.8
20260505034523 56 209 0.0 0.0 0.00 0.00 0.00 76 1015.7
20260505034009 57 209 0.0 0.0 0.00 0.00 0.00 76 1015.7
20260505033506 57 209 0.0 0.0 0.00 0.00 0.00 74 1015.8
20260505033024 58 209 0.0 0.0 0.00 0.00 0.00 73 1015.9
20260505032507 59 209 0.0 0.0 0.00 0.00 0.00 72 1015.8
20260505032003 59 209 0.0 0.0 0.00 0.00 0.00 72 1015.9
20260505031530 59 209 0.0 0.0 0.00 0.00 0.00 72 1015.9
20260505031002 60 209 0.0 0.0 0.00 0.00 0.00 69 1015.9
20260505030505 60 209 0.0 0.0 0.00 0.00 0.00 68 1016.0
20260505030017 60 209 0.0 0.0 0.00 0.00 0.00 67 1016.0
20260505025504 60 209 0.0 0.0 0.00 0.00 0.00 67 1016.0
20260505025004 59 209 0.0 0.0 0.00 0.00 0.00 67 1016.0
20260505024532 59 209 0.0 0.0 0.00 0.00 0.00 70 1016.2
20260505024006 59 209 0.0 0.0 0.00 0.00 0.00 67 1016.2
20260505023507 59 209 0.0 0.0 0.00 0.00 0.00 68 1016.3
20260505023028 60 209 0.0 0.0 0.00 0.00 0.00 68 1016.3
20260505022506 60 209 0.0 0.0 0.00 0.00 0.00 66 1016.2
20260505022011 61 209 0.0 0.0 0.00 0.00 0.00 64 1016.2
20260505021528 61 209 0.0 0.0 0.00 0.00 0.00 63 1016.2
20260505021004 62 209 0.0 0.0 0.00 0.00 0.00 63 1016.1
20260505020503 62 209 0.0 0.0 0.00 0.00 0.00 62 1016.2
20260505020026 63 209 0.0 0.0 0.00 0.00 0.00 62 1016.2
20260505015508 63 209 0.0 0.0 0.00 0.00 0.00 60 1016.1
20260505015006 64 209 0.0 0.0 0.00 0.00 0.00 58 1016.1
20260505014527 64 209 0.0 0.0 0.00 0.00 0.00 57 1016.1
20260505014008 64 209 0.0 0.0 0.00 0.00 0.00 57 1016.0
20260505013514 64 209 0.0 0.0 0.00 0.00 0.00 56 1015.9
20260505013025 65 209 0.0 0.0 0.00 0.00 0.00 56 1015.8
20260505012507 65 209 0.0 2.0 0.00 0.00 0.00 56 1015.7
20260505012007 65 209 0.0 2.0 0.00 0.00 0.00 55 1015.7
20260505011533 66 161 0.0 1.0 0.00 0.00 0.00 54 1015.8
20260505011010 66 209 0.0 2.0 0.00 0.00 0.00 54 1015.8
20260505010513 67 209 0.0 3.0 0.00 0.00 0.00 53 1015.6
20260505010014 67 211 1.0 3.0 0.00 0.00 0.00 52 1015.6
20260505005504 67 196 0.0 2.0 0.00 0.00 0.00 52 1015.6
20260505005007 68 237 0.0 3.0 0.00 0.00 0.00 50 1015.5
20260505004539 68 217 0.0 3.0 0.00 0.00 0.00 50 1015.5
20260505004006 69 206 0.0 0.0 0.00 0.00 0.00 49 1015.6
20260505003506 69 206 0.0 0.0 0.00 0.00 0.00 48 1015.4
20260505003022 70 227 0.0 1.0 0.00 0.00 0.00 47 1015.4
20260505002511 70 227 0.0 3.0 0.00 0.00 0.00 46 1015.3
20260505002022 71 250 0.0 5.0 0.00 0.00 0.00 45 1015.2
20260505001525 71 234 0.0 5.0 0.00 0.00 0.00 44 1015.2
20260505001010 72 269 1.0 5.0 0.00 0.00 0.00 44 1015.1
20260505000508 72 263 1.0 5.0 0.00 0.00 0.00 43 1015.0
20260505000039 73 223 0.0 7.0 0.00 0.00 0.00 42 1015.0
20260504235507 73 252 3.0 8.0 0.00 0.00 0.00 42 1014.9
20260504235004 74 197 3.0 8.0 0.00 0.00 0.00 41 1015.0
20260504234514 74 111 2.0 6.0 0.00 0.00 0.00 41 1015.0
20260504234003 75 17 1.0 9.0 0.00 0.00 0.00 41 1015.0
20260504233508 76 208 2.0 9.0 0.00 0.00 0.00 40 1014.9
20260504233020 76 165 3.0 7.0 0.00 0.00 0.00 39 1014.8
20260504232507 77 264 2.0 6.0 0.00 0.00 0.00 40 1014.6
20260504232007 78 203 3.0 6.0 0.00 0.00 0.00 38 1014.5
20260504231522 78 103 0.0 6.0 0.00 0.00 0.00 38 1014.5
20260504231010 78 267 2.0 9.0 0.00 0.00 0.00 38 1014.4
20260504230507 78 222 3.0 9.0 0.00 0.00 0.00 37 1014.5
20260504230026 79 253 3.0 9.0 0.00 0.00 0.00 37 1014.4
20260504225509 79 180 3.0 8.0 0.00 0.00 0.00 36 1014.5
20260504225010 79 213 3.0 8.0 0.00 0.00 0.00 37 1014.4
20260504224527 80 248 3.0 8.0 0.00 0.00 0.00 36 1014.5
20260504224003 80 223 3.0 7.0 0.00 0.00 0.00 35 1014.5
20260504223507 80 207 2.0 9.0 0.00 0.00 0.00 35 1014.4
20260504223019 80 249 3.0 9.0 0.00 0.00 0.00 37 1014.5
20260504222507 80 213 3.0 8.0 0.00 0.00 0.00 35 1014.5
20260504222007 81 216 3.0 5.0 0.00 0.00 0.00 34 1014.5
20260504221523 81 298 2.0 6.0 0.00 0.00 0.00 32 1014.6
20260504221008 81 288 3.0 6.0 0.00 0.00 0.00 31 1014.7
20260504220507 81 21 0.0 4.0 0.00 0.00 0.00 31 1014.6
20260504220024 81 44 2.0 4.0 0.00 0.00 0.00 30 1014.5
20260504215508 81 352 2.0 4.0 0.00 0.00 0.00 29 1014.5
20260504215008 81 298 0.0 4.0 0.00 0.00 0.00 30 1014.5
20260504214529 80 190 1.0 4.0 0.00 0.00 0.00 30 1014.5
20260504214011 80 280 2.0 4.0 0.00 0.00 0.00 30 1014.5
20260504213508 80 41 1.0 4.0 0.00 0.00 0.00 30 1014.5
20260504213017 80 70 0.0 4.0 0.00 0.00 0.00 30 1014.4
20260504212505 80 69 2.0 4.0 0.00 0.00 0.00 30 1014.4
20260504212008 81 271 2.0 6.0 0.00 0.00 0.00 30 1014.5
20260504211521 80 284 2.0 6.0 0.00 0.00 0.00 31 1014.6
20260504211008 80 229 1.0 3.0 0.00 0.00 0.00 31 1014.6
20260504210508 81 90 1.0 8.0 0.00 0.00 0.00 29 1014.5
20260504210027 81 176 1.0 8.0 0.00 0.00 0.00 30 1014.6
20260504205508 81 177 3.0 7.0 0.00 0.00 0.00 30 1014.6
20260504205007 81 104 0.0 4.0 0.00 0.00 0.00 30 1014.7
20260504204526 80 281 2.0 5.0 0.00 0.00 0.00 30 1014.9
20260504204008 80 188 2.0 5.0 0.00 0.00 0.00 30 1014.8
20260504203509 80 250 1.0 6.0 0.00 0.00 0.00 30 1014.9
20260504203014 80 215 2.0 9.0 0.00 0.00 0.00 31 1015.0
20260504202511 79 166 5.0 9.0 0.00 0.00 0.00 32 1015.0
20260504202007 79 53 4.0 9.0 0.00 0.00 0.00 30 1015.1
20260504201520 79 205 3.0 6.0 0.00 0.00 0.00 32 1015.1
20260504201002 79 255 1.0 6.0 0.00 0.00 0.00 30 1015.4
20260504200502 79 99 3.0 6.0 0.00 0.00 0.00 32 1015.5
20260504200007 79 95 2.0 7.0 0.00 0.00 0.00 33 1015.6
20260504195502 79 121 4.0 8.0 0.00 0.00 0.00 31 1015.6
20260504195003 79 129 5.0 8.0 0.00 0.00 0.00 31 1015.7
20260504194509 79 152 3.0 12.0 0.00 0.00 0.00 30 1015.7
20260504194004 79 179 7.0 12.0 0.00 0.00 0.00 30 1015.8
20260504193505 79 267 3.0 12.0 0.00 0.00 0.00 31 1015.8
20260504193014 78 158 3.0 6.0 0.00 0.00 0.00 32 1015.9
20260504192504 78 241 1.0 4.0 0.00 0.00 0.00 30 1016.0
20260504192006 79 256 2.0 7.0 0.00 0.00 0.00 31 1016.2
20260504191518 79 217 3.0 6.0 0.00 0.00 0.00 30 1016.2
20260504191005 79 207 2.0 6.0 0.00 0.00 0.00 33 1016.2
20260504190511 78 176 1.0 8.0 0.00 0.00 0.00 34 1016.3
20260504190003 77 269 3.0 8.0 0.00 0.00 0.00 34 1016.4
20260504185502 78 127 3.0 8.0 0.00 0.00 0.00 32 1016.5
20260504185002 78 186 5.0 8.0 0.00 0.00 0.00 33 1016.6
20260504184508 78 178 5.0 7.0 0.00 0.00 0.00 31 1016.6
20260504184004 78 207 3.0 9.0 0.00 0.00 0.00 33 1016.6
20260504183504 78 165 5.0 9.0 0.00 0.00 0.00 33 1016.7
20260504183014 77 210 1.0 5.0 0.00 0.00 0.00 34 1016.7
20260504182504 77 277 3.0 6.0 0.00 0.00 0.00 33 1016.7
20260504182003 77 155 3.0 8.0 0.00 0.00 0.00 36 1016.8